FIN249 ENBR-EDDF

Flight info

Callsign FIN249
Flight time N/A
Altitude 41000
Route TUXIL DCT ZOL DCT GREFI DCT SOGPO DCT DIXAT DIXAT1A
Aircraft A359/H-SDE2E3GHIJ3J4J5LM1ORWXY/LB1D1

Departure

Time 2026-05-05 19:54
Airport Bergen Airport, Flesland (ENBR)

Arrival

Time N/A
Airport Frankfurt Main Airport (EDDF)
Time Latitude Longitude Altitude Speed Heading
2026-05-05 19:41 60.28660 5.22595 155 ft 0 kts 141°
2026-05-05 19:48 60.28661 5.22594 154 ft 2 kts 143°
2026-05-05 19:48 60.28678 5.22578 155 ft 3 kts 170°
2026-05-05 19:48 60.28696 5.22571 155 ft 3 kts 181°
2026-05-05 19:48 60.28715 5.22579 155 ft 3 kts 221°
2026-05-05 19:49 60.28718 5.22584 155 ft 0 kts 227°
2026-05-05 19:50 60.28718 5.22583 155 ft 0 kts 228°
2026-05-05 19:50 60.28708 5.22534 159 ft 6 kts 249°
2026-05-05 19:51 60.28691 5.22432 155 ft 9 kts 242°
2026-05-05 19:51 60.28632 5.22385 155 ft 11 kts 183°
2026-05-05 19:51 60.28546 5.22404 154 ft 14 kts 170°
2026-05-05 19:51 60.28436 5.22441 153 ft 18 kts 171°
2026-05-05 19:52 60.28329 5.22464 152 ft 11 kts 190°
2026-05-05 19:52 60.28292 5.22391 151 ft 0 kts 247°
2026-05-05 19:52 60.28291 5.22385 151 ft 1 kts 249°
2026-05-05 19:52 60.28291 5.22234 152 ft 18 kts 296°
2026-05-05 19:53 60.28349 5.22155 153 ft 0 kts 345°
2026-05-05 19:53 60.28428 5.22121 154 ft 45 kts 349°
2026-05-05 19:53 60.29000 5.21925 157 ft 119 kts 350°
2026-05-05 19:53 60.29993 5.21570 369 ft 162 kts 347°
2026-05-05 19:54 60.31150 5.21153 1052 ft 172 kts 349°
2026-05-05 19:54 60.32363 5.20763 1818 ft 188 kts 350°
2026-05-05 19:54 60.33763 5.20307 2205 ft 220 kts 350°
2026-05-05 19:54 60.35351 5.19780 2856 ft 238 kts 350°
2026-05-05 19:55 60.37011 5.19226 3767 ft 245 kts 350°
2026-05-05 19:55 60.38706 5.18657 4731 ft 249 kts 349°
2026-05-05 19:55 60.40428 5.18078 5738 ft 252 kts 349°
2026-05-05 19:55 60.42165 5.17490 6755 ft 254 kts 349°
2026-05-05 19:56 60.43906 5.16901 7747 ft 259 kts 348°
2026-05-05 19:56 60.45687 5.16002 8742 ft 262 kts 336°
2026-05-05 19:56 60.47218 5.14028 9752 ft 263 kts 314°
2026-05-05 19:56 60.48238 5.11024 10726 ft 264 kts 292°
2026-05-05 19:57 60.48602 5.07373 11736 ft 268 kts 271°
2026-05-05 19:57 60.48438 5.04831 12405 ft 272 kts 258°
2026-05-05 19:57 60.47230 5.00327 13719 ft 284 kts 231°
2026-05-05 19:57 60.45611 4.97858 14434 ft 304 kts 211°
2026-05-05 19:58 60.43472 4.96770 14773 ft 335 kts 185°
2026-05-05 19:58 60.41080 4.97555 15109 ft 361 kts 169°
2026-05-05 19:58 60.38558 4.98516 15531 ft 374 kts 176°
2026-05-05 19:58 60.35953 4.99175 16244 ft 380 kts 178°
2026-05-05 19:59 60.33306 4.99773 17004 ft 385 kts 179°
2026-05-05 19:59 60.30618 5.00353 17831 ft 390 kts 180°
2026-05-05 19:59 60.27906 5.00972 18636 ft 395 kts 178°
2026-05-05 19:59 60.25201 5.01918 19346 ft 402 kts 176°
2026-05-05 20:00 60.22437 5.03013 20065 ft 407 kts 176°
2026-05-05 20:00 60.19637 5.04132 20809 ft 412 kts 177°
2026-05-05 20:00 60.16816 5.05349 21525 ft 421 kts 174°
2026-05-05 20:00 60.13992 5.07298 22233 ft 434 kts 166°
2026-05-05 20:01 60.11183 5.09687 22932 ft 442 kts 166°
2026-05-05 20:01 60.08347 5.12155 23570 ft 447 kts 166°
2026-05-05 20:01 60.05476 5.14642 24135 ft 450 kts 166°
2026-05-05 20:01 60.02597 5.17128 24831 ft 451 kts 166°
2026-05-05 20:02 59.99742 5.19578 25429 ft 455 kts 166°
2026-05-05 20:02 59.96822 5.22072 26041 ft 458 kts 166°
2026-05-05 20:02 59.93878 5.24580 26643 ft 461 kts 166°
2026-05-05 20:02 59.90910 5.27103 27246 ft 465 kts 166°
2026-05-05 20:03 59.87920 5.29640 27854 ft 468 kts 166°
2026-05-05 20:03 59.84905 5.32192 28452 ft 471 kts 166°
2026-05-05 20:03 59.81872 5.34724 29026 ft 473 kts 167°
2026-05-05 20:03 59.78745 5.36430 29573 ft 460 kts 181°
2026-05-05 20:04 59.75620 5.37115 30115 ft 456 kts 184°
2026-05-05 20:04 59.72445 5.37620 30610 ft 458 kts 185°
2026-05-05 20:04 59.69252 5.38116 31012 ft 461 kts 184°
2026-05-05 20:04 59.66030 5.38625 31405 ft 465 kts 184°
2026-05-05 20:05 59.62787 5.39189 31789 ft 471 kts 182°
2026-05-05 20:05 59.59559 5.39998 32154 ft 475 kts 180°
2026-05-05 20:05 59.56264 5.40884 32511 ft 479 kts 180°
2026-05-05 20:05 59.52951 5.41759 32854 ft 481 kts 180°
2026-05-05 20:06 59.49623 5.42621 33220 ft 484 kts 180°
2026-05-05 20:06 59.46284 5.43478 33629 ft 483 kts 181°
2026-05-05 20:06 59.42956 5.44326 34135 ft 481 kts 180°
2026-05-05 20:06 59.40714 5.44894 34408 ft 481 kts 180°
2026-05-05 20:07 59.37435 5.45793 34756 ft 483 kts 178°
2026-05-05 20:07 59.34113 5.46937 35069 ft 486 kts 176°
2026-05-05 20:07 59.30779 5.48210 35382 ft 487 kts 176°
2026-05-05 20:07 59.26162 5.50014 35845 ft 488 kts 175°
2026-05-05 20:08 59.19454 5.52559 36398 ft 489 kts 176°
2026-05-05 20:08 59.12735 5.55012 37032 ft 490 kts 175°
2026-05-05 20:08 59.06025 5.57419 37622 ft 491 kts 175°
2026-05-05 20:08 58.99290 5.59822 38195 ft 492 kts 175°
2026-05-05 20:09 58.92640 5.62189 38738 ft 493 kts 175°
2026-05-05 20:09 58.85877 5.64004 39191 ft 486 kts 181°
2026-05-05 20:09 58.79949 5.64564 39564 ft 485 kts 183°
2026-05-05 20:09 58.76569 5.64781 39755 ft 485 kts 183°
2026-05-05 20:10 58.73190 5.64971 39966 ft 486 kts 183°
2026-05-05 20:10 58.69802 5.65157 40156 ft 486 kts 183°
2026-05-05 20:10 58.66422 5.65347 40350 ft 486 kts 183°
2026-05-05 20:10 58.63083 5.65541 40527 ft 486 kts 183°
2026-05-05 20:11 58.59699 5.65744 40707 ft 487 kts 183°
2026-05-05 20:11 58.56309 5.65951 40889 ft 487 kts 182°
2026-05-05 20:11 58.52919 5.66159 41006 ft 488 kts 182°
2026-05-05 20:12 58.46125 5.66578 41021 ft 487 kts 182°
2026-05-05 20:12 58.39349 5.66994 41019 ft 487 kts 182°
2026-05-05 20:13 58.32558 5.67408 41007 ft 487 kts 182°
2026-05-05 20:13 58.25827 5.67817 41017 ft 486 kts 182°
2026-05-05 20:14 58.19067 5.68225 41022 ft 486 kts 182°
2026-05-05 20:14 58.12315 5.68631 41012 ft 486 kts 182°
2026-05-05 20:15 58.05561 5.69035 41000 ft 485 kts 182°
2026-05-05 20:15 57.98812 5.69438 41019 ft 484 kts 182°
2026-05-05 20:16 57.92107 5.69837 41020 ft 484 kts 182°
2026-05-05 20:16 57.85348 5.70238 41016 ft 484 kts 182°
2026-05-05 20:17 57.78603 5.70636 40998 ft 484 kts 182°